Preview of NWS' New Version of Forecast
This preview is not operational and should not be used for support decisions.

Regional Weather Roundup (RWR)

Issued by National Weather Service (NWS)

                            
000
ASUS43 KMKX 181059
RWRWI 

WISCONSIN REGIONAL WEATHER ROUNDUP
NATIONAL WEATHER SERVICE MILWAUKEE/SULLIVAN WI
600 AM CDT THU APR 18 2019

NOTE: "FAIR" INDICATES FEW OR NO CLOUDS BELOW 12,000 FEET WITH NO
SIGNIFICANT WEATHER AND/OR OBSTRUCTIONS TO VISIBILITY.

WIZ001-002-006>008-014>016-023>028-181200-
NORTHWEST WISCONSIN
  
CITY           SKY/WX    TMP DP  RH WIND       PRES   REMARKS
SUPERIOR ARPT  CLOUDY    38  35  87 CALM      29.74R                  
ASHLAND        CLOUDY    35  34  96 N12       29.70R WCI  27          
HAYWARD        CLOUDY    36  34  92 N7        29.71R FOG     WCI  30  
SIREN          CLOUDY    37  37  99 N9        29.73R WCI  30          
CUMBERLAND     CLOUDY    36  34  93 N12G17    29.70R WCI  27          
RICE LAKE      CLOUDY    38  30  74 N10G16    29.70R WCI  30          
CHETEK         CLOUDY    37  35  95 N7        29.68R WCI  31          
LADYSMITH      CLOUDY    36  34  94 N12       29.66R WCI  28          
EAU CLAIRE     CLOUDY    38  35  89 N12G20    29.66R WCI  30          
MENOMONIE      CLOUDY    35  33  90 NW9       29.69R WCI  28          
NEW RICHMOND   CLOUDY    39  35  87 N15G21    29.72R WCI  30          
OSCEOLA        CLOUDY    40  37  91 N7        29.76R WCI  35          
$$
 
WIZ003>005-009-010-017-018-181200-
NORTH CENTRAL WISCONSIN
  
CITY           SKY/WX    TMP DP  RH WIND       PRES   REMARKS
MANITOWISH WTR DRIZZLE   33  33 100 N10G16    29.61R WCI  25          
ARBOR VITAE    CLOUDY    37  35  94 N7        29.60R WCI  31          
WOODRUFF       CLOUDY    37  35  94 N7        29.60R WCI  31          
RHINELANDER    CLOUDY    35  32  88 N9        29.58R WCI  28          
EAGLE RIVER    DRIZZLE   33  33 100 N6        29.57R WCI  27          
LAND O LAKES   LGT SNOW  33  33 100 N7G17     29.59R WCI  27          
PHILLIPS       CLOUDY    33  33 100 N8G16     29.62R WCI  26          
TOMAHAWK       CLOUDY    34  33  96 NW6       29.58R FOG     WCI  29  
MEDFORD        CLOUDY    34  33  97 N10       29.59R FOG     WCI  26  
MERRILL        CLOUDY    37  37 100 N8        29.58R FOG     WCI  31  
$$
 
WIZ029-030-035-036-043>047-181200-
CENTRAL WISCONSIN
  
CITY           SKY/WX    TMP DP  RH WIND       PRES   REMARKS
WAUSAU         CLOUDY    38  37  97 NW5       29.54S FOG     WCI  34  
MOSINEE        CLOUDY    37  37 100 MISG      29.57S FOG              
MARSHFIELD       N/A     38  38 100 NW10      29.57R FOG     WCI  31  
STEVENS POINT  CLOUDY    38  38 100 NW5       29.57R FOG     WCI  34  
WAUPACA        CLOUDY    43  42  97 NW8       29.55R                  
WAUTOMA        CLOUDY    42  41  96 NW10      29.56S                  
WISC RAPIDS    CLOUDY    40  36  86 NW10      29.58R WCI  33          
CAMP DOUGLAS   CLOUDY    41  41 100 NW8       29.58S                  
$$
 
WIZ011>013-019>022-031-037>040-048>050-181200-
NORTHEAST WISCONSIN
  
CITY           SKY/WX    TMP DP  RH WIND       PRES   REMARKS
ANTIGO         CLOUDY    35  35 100 N6        29.55R WCI  30          
SHAWANO        CLOUDY    42  39  92 N5        29.55R FOG              
OCONTO         CLOUDY    39  38  98 N6        29.53S WCI  34          
STURGEON BAY   LGT RAIN  38  38 100 N12       29.52F VSB 3/4 WCI  30  
GREEN BAY      CLOUDY    43  42  97 NW7       29.52F FOG              
MANITOWOC      CLOUDY    44  43  96 NW9       29.52S FOG              
APPLETON       FOG       43  43 100 W6        29.50F VSB 3/4          
CLINTONVILLE   CLOUDY    41  39  94 N3        29.54S FOG              
OSHKOSH        CLOUDY    45  43  93 W10       29.52S                  
$$
 
WIZ032>034-041-042-053>061-181200-
SOUTHWEST WISCONSIN
  
CITY           SKY/WX    TMP DP  RH WIND       PRES   REMARKS
LA CROSSE      CLOUDY    43  38  82 NW14      29.64R                  
SPARTA         CLOUDY    39  37  95 NW9       29.62R WCI  32          
VIROQUA        CLOUDY    41  41 100 NW16      29.60R                  
BOSCOBEL       CLOUDY    48  41  76 NW9       29.62R                  
PRAIRIE DU CHI CLOUDY    44  39  82 W10       29.64R                  
PLATTEVILLE    CLOUDY    47  46  96 W13       29.60R                  
$$

WIZ056-057-062-063-064-067-068-181200-
SOUTH CENTRAL WISCONSIN
  
CITY           SKY/WX    TMP DP  RH WIND       PRES   REMARKS
REEDSBURG      CLOUDY    44  42  95 NW10      29.57R                  
BARABOO/DELLS  CLOUDY    44  40  85 NW7       29.56R                  
LONE ROCK      NOT AVBL                                               
MINERAL POINT  CLOUDY    46  46 100 W9        29.59R                  
MADISON        DRIZZLE   48  47  96 NW6       29.56R FOG              
MIDDLETON      CLOUDY    49  47  90 W8        29.56R                  
WATERTOWN      CLOUDY    47  47 100 NW9       29.55R                  
MONROE         CLOUDY    47  45  92 MISG      29.58R FOG              
JANESVILLE     CLOUDY    54  48  82 W10       29.57R                  
$$
 
WIZ051-052-058>065-066-070>072-181200-
SOUTHEAST WISCONSIN
  
CITY           SKY/WX    TMP DP  RH WIND       PRES   REMARKS
MILWAUKEE      CLOUDY    56  48  74 SW8       29.53S                  
WAUKESHA       CLOUDY    52  46  82 W7        29.55R                  
MILWAUKEE/TIMM CLOUDY    54  45  71 W9        29.55R                  
RACINE         CLOUDY    56  48  74 W8        29.55S                  
KENOSHA        CLOUDY    55  51  86 W12       29.53F                  
FOND DU LAC    CLOUDY    46  43  89 W10G20    29.53R                  
SHEBOYGAN      CLOUDY    49  44  83 W8        29.51R                  
WEST BEND      CLOUDY    46  45  93 W10       29.53R                  
JUNEAU         CLOUDY    46  43  90 NW6       29.55R                  
$$

LSZ147-162-181200-
LAKE SUPERIOR
  
STATION/POSITION TIME  TEMP    WIND        PRES    WAVE
                       AIR SEA DIR/SP/G            HT/PER
                 (UTC) (F)     (DEG/KT/KT) (MB)    (FT/S)
$$
 
LMZ867-665-643>646-181200-
LAKE MICHIGAN
  
STATION/POSITION TIME  TEMP    WIND        PRES    WAVE
                       AIR SEA DIR/SP/G            HT/PER
                 (UTC) (F)     (DEG/KT/KT) (MB)    (FT/S)
NORTHPORT PIER   1040   36     290/  5/  7  999.7S
KEWAUNEE LAKESHO 1024   42     340/  4/  7  998.8
SHEBOYGAN LAKESH 1000   51     280/  9/ 12  999.2F
KENOSHA   LAKESH 1000   57     230/  9/ 12 1000.7
$$

TC  - TEMPERATURE IN CELSIUS
VSB - VISIBILITY IN STATUTE MILES
WCI - WIND CHILL INDEX
HX  - HEAT INDEX